This is the latest recevied weather packets stored in our database for station/object K6JWN. If no packets are shown the sender has not sent any weather packets the latest 10 day(s).
| Time | Temp. | Humidity | Pressure | Rain* | Wind** | Luminosity | Snow |
|---|---|---|---|---|---|---|---|
| 1787519657 | 36.11° C | 12% | 1011 hPa | 0 mm | - | - | - |
| 1787519057 | 35.56° C | 11% | 1011.1 hPa | 0 mm | - | - | - |
| 1787518456 | 35.56° C | 14% | 1011.1 hPa | 0 mm | - | - | - |
| 1787517857 | 35° C | 14% | 1011.3 hPa | 0 mm | - | - | - |
| 1787517256 | 35° C | 16% | 1011.3 hPa | 0 mm | - | - | - |
| 1787516657 | 33.89° C | 16% | 1011.5 hPa | 0 mm | - | - | - |
| 1787516057 | 33.33° C | 17% | 1011.6 hPa | 0 mm | - | - | - |
| 1787515457 | 33.33° C | 16% | 1011.7 hPa | 0 mm | - | - | - |
| 1787514857 | 33.33° C | 18% | 1011.8 hPa | 0 mm | - | - | - |
| 1787514256 | 32.78° C | 19% | 1011.9 hPa | 0 mm | - | - | - |
| 1787513656 | 32.78° C | 18% | 1011.9 hPa | 0 mm | - | - | - |
| 1787513056 | 32.22° C | 20% | 1012 hPa | 0 mm | - | - | - |
| 1787512456 | 32.22° C | 19% | 1012.1 hPa | 0 mm | - | - | - |
| 1787511857 | 32.22° C | 20% | 1012.4 hPa | 0 mm | - | - | - |
| 1787511256 | 31.67° C | 20% | 1012.4 hPa | 0 mm | - | - | - |
| 1787510657 | 30.56° C | 20% | 1012.6 hPa | 0 mm | - | - | - |
| 1787510056 | 30° C | 23% | 1012.7 hPa | 0 mm | - | - | - |
| 1787509456 | 29.44° C | 28% | 1012.8 hPa | 0 mm | - | - | - |
| 1787508857 | 28.89° C | 32% | 1012.8 hPa | 0 mm | - | - | - |
| 1787508257 | 28.33° C | 32% | 1012.9 hPa | 0 mm | - | - | - |
| 1787507657 | 28.33° C | 31% | 1012.7 hPa | 0 mm | - | - | - |
| 1787507056 | 28.33° C | 30% | 1012.8 hPa | 0 mm | - | - | - |
| 1787506457 | 27.22° C | 33% | 1012.9 hPa | 0 mm | - | - | - |
| 1787505856 | 26.67° C | 35% | 1013 hPa | 0 mm | - | - | - |
| 1787505257 | 26.11° C | 37% | 1013.1 hPa | 0 mm | - | - | - |
* Rain latest hour (hover to see other rain measurements)
** Current wind speed in m/s (hover to see current wind gust speed)